When you browse on this site, cookies collect data to enhance your experience and personalize the content and advertising you see.
Visit our Privacy Policy to learn more. By continuing to use the site, you agree to this use of cookies and data.
  • In Romania
  • List of Countries
  • For 7 days
  • Water Temperature
  • Weather Map
  • Weather Widgets
  • user-avatar
    Login

    Hourly Weather Melbourne

    Today, 15 September, Sunday

    Time Temperature Precipitation Wind Pressure Humidity
    00:00 +15°C° 0 mm 4 mps 764 mmHg 58%
    01:00 +15°C° 0 mm 4 mps 763 mmHg 55%
    02:00 +15°C° 0 mm 4 mps 763 mmHg 56%
    03:00 +15°C° 0 mm 4 mps 763 mmHg 56%
    04:00 +15°C° 0 mm 5 mps 762 mmHg 56%
    05:00 +15°C° 0 mm 5 mps 762 mmHg 57%
    06:00 +14°C° 0 mm 5 mps 762 mmHg 58%
    07:00 +14°C° 0 mm 5 mps 762 mmHg 59%
    08:00 +14°C° 0 mm 5 mps 762 mmHg 60%
    09:00 +14°C° 0 mm 6 mps 762 mmHg 61%
    10:00 +15°C° 0 mm 8 mps 762 mmHg 70%
    11:00 +15°C° 0.2 mm 7 mps 761 mmHg 69%
    12:00 +16°C° 0.2 mm 7 mps 761 mmHg 69%
    13:00 +17°C° 0.2 mm 6 mps 760 mmHg 68%
    14:00 +19°C° 0.1 mm 6 mps 760 mmHg 65%
    15:00 +20°C° 0.1 mm 5 mps 759 mmHg 63%
    16:00 +20°C° 0 mm 4 mps 759 mmHg 55%
    17:00 +19°C° 0.7 mm 3 mps 759 mmHg 65%
    18:00 +18°C° 0.7 mm 2 mps 759 mmHg 74%
    19:00 +17°C° 0.7 mm 2 mps 759 mmHg 84%
    20:00 +16°C° 1.4 mm 2 mps 759 mmHg 87%
    21:00 +16°C° 1.4 mm 1 mps 759 mmHg 90%
    22:00 +15°C° 0 mm 4 mps 759 mmHg 83%
    23:00 +14°C° 1.1 mm 4 mps 759 mmHg 85%

    Tomorrow, 16 September, Monday

    Time Temperature Precipitation Wind Pressure Humidity
    00:00 +14°C° 1.1 mm 5 mps 759 mmHg 87%
    01:00 +13°C° 1.1 mm 5 mps 760 mmHg 89%
    02:00 +12°C° 0.8 mm 5 mps 760 mmHg 86%
    03:00 +11°C° 0.8 mm 4 mps 760 mmHg 84%
    04:00 +10°C° 0.8 mm 4 mps 760 mmHg 82%
    05:00 +8°C° 0 mm 4 mps 761 mmHg 82%
    06:00 +8°C° 0 mm 4 mps 761 mmHg 82%
    07:00 +8°C° 0 mm 4 mps 762 mmHg 82%
    08:00 +10°C° 0 mm 4 mps 763 mmHg 74%
    09:00 +10°C° 0 mm 5 mps 763 mmHg 65%
    10:00 +10°C° 0 mm 5 mps 764 mmHg 57%
    11:00 +11°C° 0 mm 6 mps 764 mmHg 54%
    12:00 +11°C° 0 mm 6 mps 764 mmHg 51%
    13:00 +11°C° 0 mm 7 mps 764 mmHg 47%
    14:00 +11°C° 0 mm 6 mps 764 mmHg 49%
    15:00 +10°C° 0 mm 6 mps 764 mmHg 50%
    16:00 +10°C° 0 mm 6 mps 765 mmHg 51%
    17:00 +9°C° 0 mm 5 mps 765 mmHg 54%
    18:00 +8°C° 0 mm 5 mps 766 mmHg 58%
    19:00 +7°C° 0 mm 4 mps 766 mmHg 61%
    20:00 +6°C° 0 mm 4 mps 767 mmHg 62%
    21:00 +6°C° 0 mm 4 mps 768 mmHg 63%
    22:00 +5°C° 0 mm 4 mps 768 mmHg 63%
    23:00 +5°C° 0 mm 4 mps 768 mmHg 65%

    Day after tomorrow, 17 September, Tuesday

    Time Temperature Precipitation Wind Pressure Humidity
    00:00 +5°C° 0 mm 4 mps 768 mmHg 67%
    01:00 +5°C° 0 mm 4 mps 768 mmHg 69%
    02:00 +5°C° 0 mm 4 mps 768 mmHg 68%
    03:00 +5°C° 0 mm 4 mps 768 mmHg 68%
    04:00 +4°C° 0 mm 3 mps 768 mmHg 67%
    05:00 +4°C° 0 mm 3 mps 769 mmHg 68%
    06:00 +4°C° 0 mm 3 mps 769 mmHg 68%
    07:00 +4°C° 0 mm 3 mps 769 mmHg 68%
    08:00 +7°C° 0 mm 3 mps 769 mmHg 62%
    09:00 +8°C° 0 mm 3 mps 770 mmHg 56%
    10:00 +10°C° 0 mm 3 mps 770 mmHg 50%
    11:00 +11°C° 0 mm 3 mps 769 mmHg 47%
    12:00 +12°C° 0 mm 3 mps 769 mmHg 45%
    13:00 +13°C° 0 mm 3 mps 769 mmHg 42%
    14:00 +13°C° 0 mm 3 mps 769 mmHg 44%
    15:00 +13°C° 0 mm 3 mps 768 mmHg 46%
    16:00 +12°C° 0 mm 3 mps 768 mmHg 48%
    17:00 +11°C° 0 mm 3 mps 768 mmHg 54%
    18:00 +9°C° 0 mm 3 mps 769 mmHg 61%
    19:00 +8°C° 0 mm 2 mps 770 mmHg 68%
    20:00 +7°C° 0 mm 2 mps 770 mmHg 70%
    21:00 +8°C° 0 mm 1 mps 770 mmHg 73%
    22:00 +7°C° 0 mm 1 mps 771 mmHg 75%
    23:00 +7°C° 0 mm 1 mps 771 mmHg 77%

    18 September, Wednesday

    Time Temperature Precipitation Wind Pressure Humidity
    00:00 +6°C° 0 mm 1 mps 771 mmHg 78%
    01:00 +6°C° 0 mm 1 mps 771 mmHg 80%
    02:00 +6°C° 0 mm 1 mps 770 mmHg 80%
    03:00 +6°C° 0 mm 1 mps 770 mmHg 81%
    04:00 +5°C° 0 mm 1 mps 770 mmHg 81%
    05:00 +6°C° 0 mm 1 mps 770 mmHg 80%
    06:00 +6°C° 0 mm 1 mps 770 mmHg 78%
    07:00 +5°C° 0 mm 2 mps 770 mmHg 76%
    08:00 +8°C° 0 mm 2 mps 770 mmHg 67%
    09:00 +12°C° 0 mm 2 mps 770 mmHg 57%
    10:00 +15°C° 0 mm 2 mps 769 mmHg 47%
    11:00 +16°C° 0 mm 2 mps 769 mmHg 44%
    12:00 +17°C° 0 mm 2 mps 768 mmHg 42%
    13:00 +19°C° 0 mm 2 mps 768 mmHg 39%
    14:00 +19°C° 0 mm 2 mps 767 mmHg 41%
    15:00 +19°C° 0 mm 2 mps 767 mmHg 43%
    16:00 +19°C° 0 mm 2 mps 766 mmHg 44%
    17:00 +17°C° 0 mm 2 mps 767 mmHg 52%
    18:00 +15°C° 0 mm 2 mps 767 mmHg 60%
    19:00 +13°C° 0 mm 2 mps 767 mmHg 67%
    20:00 +12°C° 0 mm 2 mps 767 mmHg 71%
    21:00 +12°C° 0 mm 2 mps 767 mmHg 74%
    22:00 +10°C° 0 mm 2 mps 767 mmHg 78%
    23:00 +9°C° 0 mm 3 mps 767 mmHg 78%

    19 September, Thursday

    Time Temperature Precipitation Wind Pressure Humidity
    00:00 +9°C° 0 mm 3 mps 766 mmHg 79%
    01:00 +9°C° 0 mm 3 mps 766 mmHg 79%
    02:00 +8°C° 0 mm 3 mps 765 mmHg 79%
    03:00 +7°C° 0 mm 4 mps 765 mmHg 78%
    04:00 +7°C° 0 mm 4 mps 764 mmHg 78%
    05:00 +8°C° 0 mm 4 mps 764 mmHg 76%
    06:00 +8°C° 0 mm 4 mps 764 mmHg 75%
    07:00 +10°C° 0 mm 4 mps 764 mmHg 73%
    08:00 +12°C° 0 mm 5 mps 763 mmHg 65%
    09:00 +15°C° 0 mm 6 mps 763 mmHg 57%
    10:00 +18°C° 0 mm 7 mps 762 mmHg 49%
    11:00 +20°C° 0 mm 7 mps 762 mmHg 49%
    12:00 +21°C° 0 mm 7 mps 761 mmHg 48%
    13:00 +22°C° 0 mm 8 mps 760 mmHg 47%
    14:00 +22°C° 0 mm 7 mps 759 mmHg 50%
    15:00 +21°C° 0 mm 7 mps 758 mmHg 53%
    16:00 +21°C° 0 mm 7 mps 758 mmHg 56%
    17:00 +20°C° 0 mm 6 mps 758 mmHg 57%
    18:00 +20°C° 0 mm 6 mps 758 mmHg 59%
    19:00 +19°C° 0 mm 5 mps 758 mmHg 60%
    20:00 +19°C° 0 mm 6 mps 758 mmHg 61%
    21:00 +19°C° 0 mm 6 mps 758 mmHg 63%
    22:00 +18°C° 0 mm 7 mps 758 mmHg 64%
    23:00 +18°C° 0 mm 7 mps 757 mmHg 62%

    20 September, Friday

    Time Temperature Precipitation Wind Pressure Humidity
    00:00 +18°C° 0 mm 7 mps 757 mmHg 60%
    01:00 +20°C° 0 mm 7 mps 757 mmHg 58%
    02:00 +18°C° 0 mm 7 mps 756 mmHg 58%
    03:00 +18°C° 0 mm 7 mps 756 mmHg 58%
    04:00 +18°C° 0 mm 7 mps 755 mmHg 58%
    05:00 +17°C° 0 mm 7 mps 756 mmHg 61%
    06:00 +17°C° 0 mm 6 mps 756 mmHg 64%
    07:00 +16°C° 0 mm 6 mps 757 mmHg 67%
    08:00 +17°C° 0 mm 6 mps 757 mmHg 64%
    09:00 +19°C° 0 mm 5 mps 757 mmHg 61%
    10:00 +19°C° 0 mm 5 mps 757 mmHg 59%
    11:00 +19°C° 0.5 mm 5 mps 757 mmHg 62%
    12:00 +17°C° 0.5 mm 5 mps 757 mmHg 66%
    13:00 +17°C° 0.5 mm 5 mps 757 mmHg 70%
    14:00 +16°C° 1.9 mm 5 mps 758 mmHg 75%
    15:00 +14°C° 1.9 mm 5 mps 758 mmHg 81%
    16:00 +13°C° 1.9 mm 5 mps 758 mmHg 86%
    17:00 +12°C° 0.6 mm 4 mps 759 mmHg 85%
    18:00 +12°C° 0.6 mm 3 mps 760 mmHg 83%
    19:00 +12°C° 0.6 mm 1 mps 760 mmHg 81%
    20:00 +12°C° 0 mm 2 mps 761 mmHg 80%
    21:00 +12°C° 0 mm 2 mps 761 mmHg 79%
    22:00 +10°C° 0 mm 2 mps 762 mmHg 79%
    23:00 +10°C° 0 mm 2 mps 762 mmHg 79%
    Show more